Regional Weather Roundup
Issued by NWS Wakefield, VA

Home | Current Version | Previous Version | Text Only | Print | Product List | Glossary Off
Versions: 1 2 3 4 5 6 7 8 9 10 11 12 13 14 15 16 17 18 19 20 21 22 23 24 25 26 27 28 29 30 31 32 33 34 35 36 37 38 39 40 41 42 43 44 45 46 47 48 49 50

000
ASUS41 KAKQ 312315
RWRAKQ

REGIONAL WEATHER ROUNDUP
NATIONAL WEATHER SERVICE WAKEFIELD VA
700 PM EDT FRI JUL 31 2015

Note: "fair" indicates few or no clouds below 12,000 feet with no
significant weather and/or obstructions to visibility. * = Denotes
station may not report precipitation (e.g., rain,snow,etc.),
thunder or fog.

VAZ042-051-052>054-056-010000-
NORTHERN VIRGINIA

CITY           SKY/WX    TMP DP  RH WIND       PRES   REMARKS
WASH NATIONAL  MOSUNNY   90  60  36 N8        29.86F
DULLES         MOSUNNY   85  58  39 W6        29.87S
FORT BELVOIR   SUNNY     87  62  42 W8        29.85F
QUANTICO       NOT AVBL
FREDERICKSBRG* SUNNY     88  60  38 W6        29.86F
STAFFORD*      SUNNY     84  64  50 CALM      29.91F
WARRENTON      SUNNY     87  66  49 CALM      29.88S
CULPEPER*      SUNNY     84  62  46 CALM      29.88F
MANASSAS*      SUNNY     86  57  37 W5        29.87F
LEESBURG*      SUNNY     88  63  42 SW3       29.88S
WINCHESTER     SUNNY     88  54  31 W8        29.89S
FRONT ROYAL*   FAIR      82  63  51 CALM      29.88F
LURAY*         FAIR      88  59  37 W6        29.91S
$$

VAZ048-049-060>072-079>083-010000-
CENTRAL AND SOUTH CENTRAL VIRGINIA

CITY           SKY/WX    TMP DP  RH WIND       PRES   REMARKS
RICHMOND       MOSUNNY   87  57  35 N9        29.87F
CHESTERFIELD*  FAIR      86  55  35 NW7       29.90S
PETERSBURG*    SUNNY     87  65  47 N5        29.89R
HANOVER        SUNNY     84  66  54 CALM      29.89S
TAPPAHANNOCK*  SUNNY     83  65  54 CALM      29.88S
QUINTON*       FAIR      85  65  50 CALM      29.87R
CHARLOTTSVILLE SUNNY     84  60  44 CALM      29.89F
GORDONSVILLE*  FAIR      84  63  48 CALM      29.89S
ORANGE*        SUNNY     86  63  45 CALM      29.90F
LOUISA*        SUNNY     88  61  40 CALM      29.88F
BUMPASS*       FAIR      84  64  50 CALM      29.88F
FARMVILLE*     SUNNY     87  53  30 W5        29.88F
CREWE*         FAIR     N/A N/A N/A CALM      29.89S
FORT PICKETT*  FAIR      86  57  37 NW3       29.89S
CHASE CITY*    FAIR      88  65  47 CALM      29.90R
CLARKSVILLE*   FAIR      86  63  45 CALM      29.90S
SOUTH HILL*    SUNNY     85  65  50 CALM      29.96R
LAWRENCEVILLE* FAIR      86  61  42 CALM      29.89R
EMPORIA*       MOSUNNY   86  64  48 CALM      29.90R
$$

VAZ088>098-010000-
SOUTHEAST VIRGINIA

CITY           SKY/WX    TMP DP  RH WIND       PRES   REMARKS
NORFOLK        MOSUNNY   83  62  49 E5        29.88R
VIRGINIA BEACH MOSUNNY   87  63  44 N3        29.87R
NORFOLK NAVAL  MOSUNNY   84  64  50 SE5       29.90R
WEST POINT*    SUNNY     87  56  34 CALM      29.88S
SALUDA*        FAIR      85  65  51 N7        29.86S
NEWPORT NEWS   SUNNY     86  67  52 CALM      29.88R
LANGLEY AFB    SUNNY     85  64  48 NW5       29.88R
FORT EUSTIS    SUNNY     86  62  43 NW2       29.86R
WILLIAMSBURG*  SUNNY     84  70  61 CALM      29.88R
HR EXEC AP*    FAIR      84  70  61 CALM      29.90R
FRANKLIN*      MOSUNNY   86  66  51 NW3       29.89R
WAKEFIELD      SUNNY     88  67  49 CALM      29.88R
$$

VAZ020-022-025-037-045-010000-
WEST CENTRAL AND SOUTHWEST VIRGINIA

CITY           SKY/WX    TMP DP  RH WIND       PRES   REMARKS
STAUNTON*      PTSUNNY   87  57  36 NW5       29.94F
WAYNESBORO*    FAIR      81  60  48 CALM      29.95S
HOT SPRINGS VA SUNNY     73  53  49 NW9G16    30.08S
LYNCHBURG      SUNNY     83  60  45 VRB5      29.94F
DANVILLE       SUNNY     85  61  44 NE6       29.91F
SOUTH BOSTON*  FAIR      85  59  41 W6        29.90S
MARTINSVILLE   SUNNY     86  52  30 NW5       29.96S
ROANOKE        MOSUNNY   85  54  34 N13       29.96F
BLACKSBURG     SUNNY     81  57  44 N9        30.04S
DUBLIN*          N/A     80  57  45 NW7       30.03S
MARION*        SUNNY     77  53  43 NW7       30.08S
HILLSVILLE*    MOSUNNY   78  55  45 NW9       30.04S
RICHLANDS*     FAIR      74  57  56 NW7       30.08R
WISE*          SUNNY     79  52  38 NW7       30.09S
ABINGDON*      SUNNY     80  53  39 CALM      30.05R
$$

MDZ021>025-VAZ099-100-010000-
SOUTHERN MARYLAND AND THE DELMARVA PENINSULA

CITY           SKY/WX    TMP DP  RH WIND       PRES   REMARKS
PATUXENT RIVER MOSUNNY   84  63  49 W10       29.84F
BAY BRIDGE APT   N/A     86  55  35 CALM      29.85S
LEONARDTOWN    SUNNY     84  61  45 W3        29.87F
DOVER          SUNNY     85  62  46 NW7       29.83S
GEORGETOWN     SUNNY     86  59  39 NW5       29.85S
EASTON         SUNNY     86  63  45 CALM      29.88F
CAMBRIDGE      SUNNY     84  61  45 CALM      29.84F
SALISBURY      SUNNY     85  62  46 NW7       29.85S
OCEAN CITY     SUNNY     82  61  48 SW5       29.85S
WALLOPS ISLAND SUNNY     82  66  58 SE7       29.86S
ACCOMACK*      SUNNY     82  79  89 CALM      29.86S
$$

NCZ012>017-030>032-010000-
NORTH CENTRAL AND EASTERN NORTH CAROLINA

CITY           SKY/WX    TMP DP  RH WIND       PRES   REMARKS
ROANOKE RAPIDS FAIR      86  63  45 N5        29.89R
RALEIGH        MOSUNNY   87  61  41 N7        29.91R
ELIZABETH CITY SUNNY     83  67  58 E8        29.89R
AHOSKIE*       SUNNY     85  64  50 CALM      29.89R
EDENTON*         N/A     83  67  57 E8        29.89R
CURRITUCK*     SUNNY     84  62  46 E3        29.90R
KILL DEVIL HLS SUNNY     86  64  48 CALM      29.88S
MANTEO         SUNNY     83  65  55 E7        29.90R
CAPE HATTERAS  PTSUNNY   84  73  69 VRB5      29.90R
TARBORO*         N/A     87  68  53 CALM      29.89R
GOLDSBORO      MOSUNNY   91  66  42 W2        29.86R
WASHINGTON     SUNNY     85  70  60 E5        29.89R
GREENVILLE     PTSUNNY   90  72  55 CALM      29.90R HX  96
NEW BERN       SUNNY     88  73  61 SE8       29.89R HX  95
WILMINGTON     TSTM      76  73  91 SW9       29.92R
$$

VAZ048-010000-
ELSEWHERE

CITY           SKY/WX    TMP DP  RH WIND       PRES   REMARKS
HARRISBURG PA  MOSUNNY   85  62  46 SW5       29.83F
BALTIMORE      MOSUNNY   87  59  38 NW7       29.84F
ANNAPOLIS      SUNNY     86  60  41 NW6       29.84F
ANDREWS AFB    SUNNY     87  59  39 NW7       29.85F
PHILADELPHIA   MOSUNNY   89  54  30 NW12      29.83S
HENDERSON NC   SUNNY     85  57  39 CALM      29.91S
GREENSBORO     MOSUNNY   87  57  35 NW8       29.93S
ROCKY MOUNT    SUNNY     91  64  40 NW8       29.89R
$$

VAZ100-010000-
MARINE

STATION/POSITION TIME  TEMP    WIND        PRES    WAVE   SWELL
                       AIR SEA DIR/SP/G            HT/PER HT/PER
                 (UTC) (F)     (DEG/KT/KT) (MB)    (FT/S) (FT/S)
BRANDYWINE LGT   2200   83 78  250/  4/  4 1010.9F
CAPE MAY NJ      2200   82 80  250/  5/  6 1010.3F
LEWES DE         2200   83 77   10/  5/  5 1010.5F
15NM E FENWICK I 2250   82 80  360/  4/  6 1010.4F   3/ 8   3/ 8
OCEAN-CITY-INLET 2200   80 76  190/  5/  6 1010.0F
THOMAS POINT MD  2300   86 82  310/  8/ 10 1011.0F
GOOSES REEF MD   2300   89 84     CALM     1011.8F
COVE POINT MD    2200   84     170/  4/  5 1011.7F
SOLOMONS ISLAND  2200      84                N/A
BISHOPS HEAD MD  2200   84 86  270/  7/  8 1010.3F
PINEY POINT MD   2200          300/  9/ 10   N/A
POTOMAC MD       2300   86 83  300/ 12/ 14 1009.8F   1/ 2
CAMBRIDGE MD     2200   85 84  330/  4/  5 1010.1F
LEWISETTA VA     2200   86 83  310/  7/  8 1010.9F
RAPPAHANNOCK LGT 2200          360/  4/  5 1011.8F
STINGRAY PT      2300   85 85   80/  4/  8 1011.6R   1
YORK RVR RNG VA  2200   85     360/  7/  9 1010.8F
YORKTOWN VA      2200   85 85  310/  6/ 10 1011.1F
JAMESTOWN VA     2300   86 87   10/  2/  4   N/A
DOMINION TERM VA 2200   84     100/  5/  8 1011.4F
KIPTOPEKE VA     2200      83  360/  6/  8   N/A
CHES BAY BRIDGE  2200   83 82   20/  6/  7 1011.0F
CAPE HENRY VA    2200   83     360/  8/  9   N/A
CHESAPEAKE LGHT  2200   81        CALM     1012.1F
WILLOUBY STN VA  2200   83     100/  7/  8 1012.3F
CAPE HENRY BUOY  2228      82                N/A     3/10
1ST LANDING BUOY 2300      81              1011.5R   2/ 4
CAPE CHARLES BUO 2226      82                N/A     3/ 9
OFFSHORE WE BUOY 2211      82                N/A     3/ 7   3/ 7
64NM E OF VA BCH 2250   82 82  360/  6/  8 1011.0R   3/ 9   3/ 9
DUCK PIER NC     2200   82 80   40/  8/  9 1011.2R
44100 DUCK FRF   2224      81                N/A     4/ 5   2/11
44056 DUCK FRF   2211      80                N/A     3/ 4   2/11
OREGON INLET NC  2200   83 85  360/  8/ 12 1011.9R
HATTERAS NC      2200   82 84   20/  8/ 10 1011.9R
DIAMOND SHLS NC  2250   81 86  360/  4/  6 1012.6R   4/ 9   3/ 9
CAPE LOOKOUT NC  2300   79      80/  8/  9 1012.4R
$$


USA.gov is the U.S. government's official web portal to all federal, state and local government web resources and services.